Regional Weather Roundup
Issued by NWS Memphis, TN

Home | Current Version | Previous Version | Text Only | Print | Product List | Glossary On
Versions: 1 2 3 4 5 6 7 8 9 10 11 12 13 14 15 16 17 18 19 20 21 22 23 24 25 26 27 28 29 30 31 32 33 34 35 36 37 38 39 40 41 42 43 44 45 46 47 48 49 50
000
ASUS44 KMEG 111610
RWRMEG
MEMPHIS CWA HOURLY WEATHER ROUNDUP
NATIONAL WEATHER SERVICE MEMPHIS TN
1000 AM CST MON DEC 11 2017

...WEST TENNESSEE...

CITY           SKY/WX    TMP DP  RH WIND       PRES   REMARKS
MEMPHIS INTL   SUNNY     52  31  44 SW7       30.15S
NWS MEMPHIS      N/A     51 N/A N/A MISG        N/A
JACKSON        SUNNY     51  31  46 SW7       30.12F
COVINGTON      SUNNY     52  34  50 S7        30.12F
SOMERVILLE     SUNNY     52  32  46 S7        30.12F
BOLIVAR        SUNNY     54  30  40 S6        30.12F
LEXINGTON      SUNNY     45  32  61 VRB5      30.14S
SAVANNAH       SUNNY     48  32  53 S6        30.14F
DYERSBURG      SUNNY     50  33  52 VRB3      30.12F
UNION CITY     SUNNY     48  34  57 SW7       30.09F
PARIS          SUNNY     48  32  53 SW8       30.10S
HUNTINGDON     SUNNY     50  32  50 SW8       30.10F


...EASTERN ARKANSAS...

CITY           SKY/WX    TMP DP  RH WIND       PRES   REMARKS
JONESBORO      SUNNY     51  32  48 SW7       30.10F
WEST MEMPHIS   SUNNY     49  34  56 SW7       30.14S
BATESVILLE     SUNNY     59  27  29 SW10      30.09F
NEWPORT        SUNNY     50  37  61 S8        30.11F
WALNUT RIDGE   SUNNY     49  34  56 S9        30.08F
BLYTHEVILLE    SUNNY     50  34  54 SW10      30.12S
NW BLYTHEVILLE SUNNY     48  36  61 SW12      30.12S
SEARCY         SUNNY     55  32  41 SW5       30.13F
STUTTGART      SUNNY     54  33  45 S6        30.16S
PINE BLUFF     SUNNY     54  31  41 SW6       30.17F
MONTICELLO     SUNNY     56  30  37 W6        30.20S


...NORTH MISSISSIPPI...

CITY           SKY/WX    TMP DP  RH WIND       PRES   REMARKS
TUPELO         SUNNY     50  32  50 CALM      30.17F
BATESVILLE     SUNNY     50  32  50 SW7       30.18S
OLIVE BRANCH   SUNNY     50  30  46 SW8       30.14F
TUNICA           N/A    N/A N/A N/A SW5       30.18S
CLARKSDALE     SUNNY     50  37  62 S3        30.18S
CORINTH        SUNNY     50  34  53 CALM      30.15S
GREENWOOD      SUNNY     51  36  56 S9        30.20F
COLUMBUS       SUNNY     49  36  61 CALM      30.18F
STARKVILLE     SUNNY     52  34  50 W3        30.20F
GOLDEN TRIANGL SUNNY     51  34  52 W3        30.19F


...SOUTHEAST MISSOURI...

CITY           SKY/WX    TMP DP  RH WIND       PRES   REMARKS
KENNETT        SUNNY     48  34  57 SW10      30.08F
MALDEN         SUNNY     50  32  50 S6        30.07F
WEST PLAINS    SUNNY     52  24  33 SW8G16    30.01F
POPLAR BLUFF   SUNNY     45  31  58 SW12      30.05F
CAPE GIRARDEAU SUNNY     45  32  60 S3        30.04F


...NORTHWEST ALABAMA...

CITY           SKY/WX    TMP DP  RH WIND       PRES   REMARKS
MUSCLE SHOALS  SUNNY     48  31  51 CALM      30.16F


...MIDDLE TENNESSEE...

CITY           SKY/WX    TMP DP  RH WIND       PRES   REMARKS
NASHVILLE      MOSUNNY   48  29  47 S9        30.11F
CLARKSVILLE    SUNNY     46  28  49 S12       30.09F
COLUMBIA       SUNNY     46  32  57 S8        30.11F


...WESTERN KENTUCKY...

CITY           SKY/WX    TMP DP  RH WIND       PRES   REMARKS
PADUCAH        SUNNY     48  29  47 SW10      30.06F
FORT CAMPBELL  SUNNY     49  29  46 SW10      30.09S


...CENTRAL ARKANSAS...

CITY           SKY/WX    TMP DP  RH WIND       PRES   REMARKS
LITTLE ROCK    SUNNY     54  29  38 SW8       30.15F


SKY/WX REPORTED AS FAIR MEANS FEW OR NO CLOUDS BELOW
12 THOUSAND FEET.





USA.gov is the U.S. government's official web portal to all federal, state and local government web resources and services.